[[{"header":{"parameterUnit":"m.s-1","parameterCategory":1,"la1":30.2991,"la2":30.254,"lo1":-89.0895,"lo2":-89.0444,"dy":0.0017,"dx":0.0017,"nx":28,"ny":28,"refTime":"2024-04-01T03:00:00:Z","depth":0,"parameterNumber":2,"parameterNumberName":"U-component_of_WINDS"},"data":[0,0,0,0,0,0,0,0,0,0,0,0,0,0,0,0,0,0,0,0,0,0,0,0,0,0,0,0,0,0,0,0,0,0,0,0,0,0,0,0,0,0,0,0,0,0,0,0,0,0,0,0,0,0,0,0,0,0,-2.3137,-2.3137,0,-2.3128,-2.3128,-2.3128,-2.3091,-2.309,-2.3089,-2.3088,-2.308,-2.3081,-2.3081,0,0,0,0,0,0,0,0,0,0,0,0,0,-2.3124,-2.3125,-2.3137,-2.3137,-2.3137,-2.3128,-2.3128,-2.3128,-2.3091,-2.309,-2.3089,-2.3088,-2.308,-2.3081,-2.3081,0,0,0,0,0,0,0,0,0,0,0,0,0,-2.3124,-2.3125,-2.3137,-2.3117,-2.3116,-2.3128,-2.3128,-2.3128,-2.3091,-2.309,-2.3089,-2.3087,-2.308,-2.3081,-2.3082,-2.3113,0,0,-2.3084,-2.3085,0,0,0,0,0,0,0,0,-2.3124,-2.3125,-2.312,-2.3119,-2.3117,-2.3109,-2.3121,-2.3123,-2.3091,-2.31,-2.3088,-2.3087,-2.3091,-2.3091,-2.3092,-2.3113,-2.3112,-2.3084,-2.3085,-2.3085,-2.3086,0,0,0,0,0,0,0,-2.3124,-2.3125,-2.3134,-2.312,-2.3118,-2.311,-2.3108,-2.3121,-2.3103,-2.31,-2.3097,-2.3096,-2.309,-2.3091,-2.3092,-2.3112,-2.3084,-2.3085,-2.3086,-2.3086,-2.3158,-2.3159,0,0,0,0,0,0,-2.3127,-2.3125,-2.3134,-2.3133,-2.3117,-2.3111,-2.3109,-2.3113,-2.3103,-2.31,-2.3097,-2.3095,-2.309,-2.3091,-2.3091,-2.3127,-2.3085,-2.3086,-2.3087,-2.3157,-2.3158,-2.316,0,0,0,0,0,0,-2.3127,-2.3128,-2.3134,-2.3129,-2.3129,-2.3113,-2.3117,-2.3113,-2.3115,-2.3101,-2.3098,-2.3102,-2.3089,-2.309,-2.3108,-2.3126,-2.3086,-2.3087,-2.3155,-2.3157,-2.3159,-2.3198,0,0,0,0,0,0,-2.3127,-2.3128,-2.3139,-2.3129,-2.3129,-2.315,-2.3118,-2.3114,-2.3116,-2.3113,-2.3105,-2.3102,-2.3088,-2.3107,-2.3109,-2.3126,-2.3088,-2.3153,-2.3156,-2.3159,-2.3195,-2.3201,-2.3207,0,0,0,0,0,-2.3126,-2.3151,-2.314,-2.3141,-2.3143,-2.3151,-2.3151,-2.3135,-2.3118,-2.3129,-2.3121,-2.3102,-2.3124,-2.3109,-2.3111,-2.3129,-2.3152,-2.3155,-2.3158,-2.3193,-2.32,-2.3207,0,0,0,0,0,0,-2.3164,-2.3149,-2.3137,-2.3159,-2.3157,-2.3145,-2.3159,-2.3143,-2.3146,-2.3142,-2.3122,-2.3121,-2.3142,-2.3137,-2.3121,-2.3159,-2.3135,-2.3139,-2.316,-2.3168,-2.3173,-2.3173,-2.3089,0,0,0,0,0,-2.3175,-2.3183,-2.317,-2.319,-2.319,-2.3175,-2.3178,-2.3166,-2.3163,-2.3161,-2.3154,-2.3152,-2.3159,-2.3163,-2.3168,-2.3195,-2.3193,-2.3209,-2.3215,-2.322,-2.3222,-2.3236,-2.3243,-2.317,-2.317,-2.317,0,0,-2.3197,-2.319,-2.3196,-2.3198,-2.3194,-2.3204,-2.3174,-2.3185,-2.3191,-2.3163,-2.3179,-2.3174,-2.3171,-2.3193,-2.3203,-2.319,-2.3242,-2.3224,-2.3227,-2.3228,-2.324,-2.3247,-2.3253,-2.3172,-2.3172,-2.3172,0,0,-2.3242,-2.3238,-2.3254,-2.3252,-2.3248,-2.3238,-2.3242,-2.3233,-2.3228,-2.3244,-2.3223,-2.3231,-2.3243,-2.3241,-2.3242,-2.3289,-2.3272,-2.3291,-2.332,-2.3334,-2.3339,-2.3344,-2.336,-2.3366,-2.3294,-2.3294,-2.3295,0,-2.327,-2.3282,-2.3265,-2.3277,-2.3278,-2.3254,-2.3271,-2.3269,-2.3267,-2.3269,-2.3255,-2.3269,-2.3266,-2.3287,-2.3299,-2.3301,-2.3305,-2.3291,-2.334,-2.3345,-2.3349,-2.3364,-2.337,-2.3297,-2.3296,-2.3296,-2.3296,0,-2.3317,-2.3326,-2.334,-2.3338,-2.3341,-2.3356,-2.3341,-2.3347,-2.3335,-2.3327,-2.3344,-2.3339,-2.3342,-2.3347,-2.3335,-2.3367,-2.3359,-2.3344,-2.3319,-2.3359,-2.3372,-2.3378,-2.33,-2.3299,-2.3298,-2.3298,0,0,-2.3383,-2.3372,-2.3378,-2.3377,-2.3371,-2.3378,-2.3392,-2.3395,-2.34,-2.34,-2.3411,-2.3422,-2.3408,-2.3409,-2.3397,-2.3409,-2.3446,-2.3392,-2.3391,-2.3401,-2.348,-2.349,-2.3497,-2.3435,-2.3436,-2.3437,-2.3479,0,-2.3425,-2.3447,-2.3433,-2.3457,-2.3465,-2.3443,-2.3455,-2.3454,-2.3447,-2.3453,-2.3446,-2.3454,-2.3434,-2.3435,-2.3446,-2.3439,-2.3461,-2.3436,-2.3445,-2.3446,-2.3444,-2.3504,-2.3516,-2.3555,-2.3485,-2.3486,-2.3486,0,-2.3476,-2.3478,-2.3503,-2.3496,-2.3499,-2.351,-2.3512,-2.3519,-2.3517,-2.3511,-2.3513,-2.3499,-2.3513,-2.349,-2.3509,-2.3492,-2.3496,-2.3493,-2.3494,-2.3493,-2.3467,-2.3503,-2.3568,-2.3573,-2.3495,-2.3494,-2.3493,0,-2.352,-2.353,-2.3546,-2.3546,-2.3538,-2.3547,-2.3544,-2.3541,-2.3544,-2.3546,-2.3548,-2.3553,-2.3555,-2.3559,-2.3546,-2.3531,-2.3567,-2.3543,-2.3562,-2.3563,-2.3569,-2.3568,-2.3634,-2.3574,-2.3574,-2.3574,-2.3574,0,-2.3567,-2.3584,-2.3565,-2.3575,-2.3593,-2.3577,-2.3595,-2.3591,-2.3588,-2.3597,-2.3579,-2.3588,-2.3572,-2.3579,-2.357,-2.3587,-2.3589,-2.3584,-2.3581,-2.3585,-2.3585,-2.3585,-2.3582,-2.3576,-2.3575,-2.3575,-2.3575,0,-2.3619,-2.3607,-2.3623,-2.3615,-2.3614,-2.3627,-2.362,-2.363,-2.3622,-2.3634,-2.3636,-2.3625,-2.3633,-2.3621,-2.3629,-2.3622,-2.3645,-2.3639,-2.3645,-2.3643,-2.3662,-2.366,-2.3728,-2.3736,-2.3673,-2.3674,-2.3674,0,-2.3649,-2.366,-2.3654,-2.3658,-2.3656,-2.3664,-2.3667,-2.3653,-2.3657,-2.3656,-2.3666,-2.3672,-2.3676,-2.3691,-2.3683,-2.3689,-2.3682,-2.3705,-2.3682,-2.3685,-2.368,-2.3679,-2.368,-2.3709,-2.371,-2.3711,-2.3711,0,-2.3702,-2.3696,-2.3701,-2.3705,-2.3709,-2.3711,-2.3712,-2.3717,-2.3702,-2.3708,-2.3715,-2.3719,-2.3726,-2.3733,-2.3737,-2.3735,-2.372,-2.3719,-2.3723,-2.3726,-2.3729,-2.3726,-2.3656,-2.3717,-2.3716,-2.3716,-2.3716,-2.3715,-2.3743,-2.3752,-2.3749,-2.3755,-2.3755,-2.3756,-2.3764,-2.3758,-2.3764,-2.3768,-2.376,-2.377,-2.3769,-2.3773,-2.3772,-2.378,-2.377,-2.3777,-2.3778,-2.378,-2.3782,-2.3729,-2.3781,-2.3781,-2.3781,-2.3781,-2.3781,0,-2.3795,-2.3792,-2.3798,-2.3799,-2.3805,-2.3792,-2.3792,-2.3797,-2.3806,-2.3806,-2.3811,-2.382,-2.3827,-2.3821,-2.3826,-2.3834,-2.3828,-2.3836,-2.3834,-2.3834,-2.3791,-2.3786,-2.3841,-2.3841,-2.3841,-2.3841,-2.3841,-2.3841,-2.3822,-2.3837,-2.3831,-2.3846,-2.3843,-2.3852,-2.3854,-2.3855,-2.3855,-2.3866,-2.3871,-2.3867,-2.3865,-2.387,-2.3876,-2.3874,-2.3877,-2.3887,-2.3883,-2.3843,-2.3837,-2.3831,-2.3826,-2.3888,-2.3888,-2.3924,-2.3924,-2.3925]},{"header":{"parameterUnit":"m.s-1","parameterCategory":1,"la1":30.2991,"la2":30.254,"lo1":-89.0895,"lo2":-89.0444,"dy":0.0017,"dx":0.0017,"nx":28,"ny":28,"refTime":"2024-04-01T03:00:00:Z","depth":0,"parameterNumber":3,"parameterNumberName":"V-component_of_WINDS"},"data":[0,0,0,0,0,0,0,0,0,0,0,0,0,0,0,0,0,0,0,0,0,0,0,0,0,0,0,0,0,0,0,0,0,0,0,0,0,0,0,0,0,0,0,0,0,0,0,0,0,0,0,0,0,0,0,0,0,0,4.0665,4.0666,0,4.0714,4.0715,4.0715,4.0716,4.0715,4.0715,4.0714,4.076,4.0762,4.0764,0,0,0,0,0,0,0,0,0,0,0,0,0,4.0568,4.057,4.0665,4.0666,4.0666,4.0714,4.0715,4.0716,4.0716,4.0715,4.0715,4.0714,4.0759,4.0762,4.0764,0,0,0,0,0,0,0,0,0,0,0,0,0,4.0613,4.057,4.0665,4.0673,4.0674,4.0714,4.0715,4.0716,4.0716,4.0715,4.0715,4.0714,4.0759,4.0761,4.0764,4.0799,0,0,4.0772,4.0773,0,0,0,0,0,0,0,0,4.061,4.0616,4.0671,4.0672,4.0674,4.0708,4.0697,4.0743,4.0717,4.07,4.0714,4.0713,4.0743,4.0747,4.0758,4.0801,4.0803,4.0772,4.0774,4.0775,4.0776,0,0,0,0,0,0,0,4.0607,4.0614,4.0684,4.0672,4.0673,4.0672,4.0678,4.0706,4.0726,4.0701,4.0702,4.0708,4.0744,4.0756,4.0759,4.0804,4.0772,4.0775,4.0776,4.0777,4.0878,4.0879,0,0,0,0,0,0,4.0603,4.0611,4.0683,4.0686,4.0639,4.0675,4.0681,4.0698,4.0726,4.0729,4.0708,4.0707,4.0752,4.0756,4.0761,4.0805,4.0775,4.0778,4.0779,4.0877,4.0879,4.088,0,0,0,0,0,0,4.0601,4.0609,4.0681,4.0649,4.0658,4.0677,4.0697,4.0699,4.0711,4.0731,4.0734,4.0717,4.0751,4.0757,4.079,4.0806,4.0779,4.0781,4.0876,4.0878,4.0879,4.0892,0,0,0,0,0,0,4.0598,4.0609,4.0623,4.0649,4.066,4.071,4.0698,4.0701,4.0717,4.0716,4.074,4.0743,4.0751,4.0786,4.0793,4.0809,4.0783,4.0875,4.0877,4.0879,4.089,4.0894,4.0897,0,0,0,0,0,4.0595,4.0623,4.0624,4.0632,4.0678,4.0711,4.0717,4.0727,4.0718,4.0732,4.0745,4.0742,4.0803,4.0789,4.0797,4.0815,4.0874,4.0876,4.0878,4.0889,4.0893,4.0897,0,0,0,0,0,0,4.0596,4.0627,4.0628,4.0666,4.0686,4.0712,4.073,4.0731,4.0753,4.0751,4.076,4.0766,4.0799,4.081,4.0794,4.085,4.0837,4.0841,4.0842,4.0847,4.085,4.0847,4.0786,0,0,0,0,0,4.0602,4.0628,4.0652,4.0683,4.0694,4.071,4.0725,4.073,4.0751,4.0759,4.0774,4.0793,4.0817,4.0832,4.0855,4.0891,4.0897,4.0907,4.0911,4.0913,4.0917,4.0938,4.0943,4.0888,4.0888,4.0888,0,0,4.0612,4.0632,4.0647,4.0684,4.0701,4.0727,4.0717,4.0744,4.0763,4.0763,4.0796,4.0807,4.0829,4.0865,4.0881,4.0875,4.0933,4.0916,4.0918,4.0921,4.0941,4.0946,4.0951,4.0889,4.0889,4.0889,0,0,4.0645,4.0662,4.0691,4.0708,4.0734,4.0745,4.0751,4.0777,4.0785,4.0819,4.0819,4.0841,4.0881,4.0897,4.091,4.095,4.0949,4.0956,4.0974,4.0995,4.0999,4.1003,4.1019,4.1024,4.096,4.096,4.096,0,4.0654,4.0694,4.0705,4.0733,4.075,4.0752,4.0781,4.0797,4.0828,4.0838,4.0831,4.0883,4.0897,4.0937,4.0947,4.0957,4.0965,4.0954,4.0998,4.1002,4.1006,4.1021,4.1026,4.0961,4.0961,4.0961,4.096,0,4.0705,4.0733,4.0753,4.0786,4.0804,4.0832,4.0846,4.0863,4.0867,4.0878,4.0912,4.093,4.0957,4.0966,4.0969,4.1007,4.1002,4.0996,4.0984,4.1012,4.1026,4.1032,4.0962,4.0962,4.0961,4.0961,0,0,4.0741,4.078,4.0787,4.0802,4.0831,4.0852,4.088,4.0908,4.0923,4.0944,4.0968,4.1002,4.0998,4.1013,4.1018,4.1035,4.1067,4.1028,4.1028,4.1036,4.1111,4.1116,4.1122,4.1066,4.1067,4.1068,4.1109,0,4.0778,4.083,4.0841,4.0886,4.0912,4.0915,4.0939,4.0959,4.097,4.0992,4.1004,4.1029,4.102,4.1029,4.1047,4.106,4.1083,4.1057,4.1088,4.1089,4.1085,4.1129,4.1135,4.1173,4.1115,4.1115,4.1116,0,4.0828,4.0853,4.0901,4.0928,4.0939,4.0961,4.0989,4.101,4.1032,4.1039,4.1057,4.106,4.1088,4.1073,4.1113,4.1095,4.1108,4.1116,4.1118,4.1122,4.1106,4.1136,4.1185,4.1191,4.1125,4.1124,4.1123,0,4.0851,4.0896,4.0932,4.0944,4.0976,4.0992,4.1005,4.1026,4.1043,4.1066,4.1077,4.1102,4.1116,4.1134,4.1144,4.1132,4.1183,4.1168,4.1189,4.1189,4.1201,4.1201,4.1254,4.1207,4.1207,4.1207,4.1207,0,4.0892,4.0922,4.0943,4.0965,4.0998,4.1009,4.1041,4.1054,4.1073,4.1097,4.1099,4.1121,4.1131,4.1154,4.1161,4.1194,4.1199,4.1205,4.1207,4.1206,4.1206,4.1216,4.1214,4.1208,4.1208,4.1208,4.1208,0,4.0925,4.094,4.0979,4.1006,4.1013,4.1037,4.1059,4.108,4.1091,4.1121,4.1128,4.1145,4.1172,4.1184,4.1216,4.1221,4.1259,4.1257,4.1252,4.1253,4.1274,4.1272,4.1337,4.1347,4.1292,4.1292,4.1293,0,4.0951,4.0974,4.1005,4.1022,4.1036,4.1063,4.1081,4.1092,4.111,4.1137,4.1155,4.1182,4.1206,4.1249,4.1263,4.1288,4.1289,4.131,4.1292,4.1291,4.1291,4.129,4.1293,4.1313,4.1314,4.1314,4.1315,0,4.0996,4.1003,4.1029,4.1058,4.108,4.1103,4.1125,4.1138,4.1152,4.1172,4.1201,4.1219,4.1254,4.1281,4.1308,4.132,4.132,4.132,4.1326,4.1327,4.1323,4.1327,4.1262,4.1319,4.1318,4.1318,4.1318,4.1318,4.1028,4.1049,4.1075,4.1104,4.1122,4.1143,4.1164,4.1179,4.1204,4.1235,4.1239,4.127,4.1291,4.1327,4.134,4.1364,4.1359,4.1368,4.137,4.1373,4.1375,4.1318,4.1369,4.1369,4.1368,4.1368,4.1368,0,4.1075,4.1091,4.1118,4.1151,4.1174,4.1173,4.1197,4.1216,4.1244,4.1265,4.1288,4.1322,4.1349,4.1366,4.1392,4.1408,4.1409,4.1415,4.1415,4.1418,4.1378,4.137,4.1414,4.1414,4.1414,4.1414,4.1414,4.1414,4.1102,4.1139,4.1149,4.1195,4.121,4.1243,4.1257,4.1276,4.1293,4.1332,4.1355,4.1366,4.1385,4.1413,4.1438,4.1442,4.1452,4.1459,4.1463,4.1425,4.1421,4.1416,4.1409,4.1461,4.1461,4.1501,4.1502,4.1502]}]]